Content
SEND FEEDBACK

Daily
Averages
Monthly
Summary
United States of America

HOPE, NORTH DAKOTA


Home > North America > United States > North Dakota
Elevation: 1174 feet     Latitude: 47 14N     Longitude: 097 39W

WEATHER
 
SELECT A DAY
Number of Records: 67,296;   Date Range: 6/1/11 - 6/21/14
 
SHARE

PRINT THIS DATA

[ ← Previous Day ]
WEATHER ALMANAC - JANUARY 31, 2013
[ Next Day → ]
[ °C ]   °F
Weather ElementAverageHighLow
Temperature-12.9 °F (10:35 am)-18.4 °F (10:55 pm)
Dewpoint-19 °F (10:35 am)-25.6 °F (11:15 pm)
Humidity71.8 %84 % (3:35 am)64 % (11:35 am)
Barometer30.14 in30.23 in (5:15 pm)29.92 in (12:35 am)
Wind Speed17.5 mph25.3 mph (5:15 am)
Wind Gust31.1 mph (10:35 am)
Weather ElementAverage
Visibility8.9 mi
Wind DirectionNW (313.3 °)

Weather ElementTotal
Precipitation0.02 in
Heating Degree Days74.2 (Base 65)
Averaged from 69 records on January 31, 2013
WEATHER CONDITIONS BREAKOUT
WIND DIRECTION BREAKOUT
WEATHER BY HOUR - JANUARY 31, 2013
[ °C ]   °F
Local TimeTemperatureDewpointHumidityBarometerVisibilityWind DirectionWind SpeedGust SpeedPrecipitationEventsConditions
12:35 AM-13.0 °F-20.2 °F70 %29.92 in10.0 miNNW (330°)16.1 mph23.0 mphMostly Cloudy
12:55 AM-13.0 °F-20.2 °F70 %29.93 in10.0 miNW (320°)18.4 mph21.9 mphScattered Clouds
1:15 AM-14.8 °F-20.2 °F77 %29.94 in10.0 miNW (320°)17.3 mph24.2 mphClear
1:35 AM-14.8 °F-20.2 °F77 %29.95 in10.0 miNW (320°)18.4 mphClear
1:55 AM-14.8 °F-20.2 °F77 %29.95 in10.0 miNW (320°)16.1 mph24.2 mphClear
2:15 AM-14.8 °F-20.2 °F77 %29.96 in8.0 miNW (320°)17.3 mph23.0 mphSnowLight Snow
2:35 AM-14.8 °F-20.2 °F77 %29.97 in7.0 miNW (320°)21.9 mph26.5 mphSnowLight Snow
2:55 AM-16.6 °F-22.0 °F76 %29.98 in10.0 miNW (310°)16.1 mphMostly Cloudy
3:15 AM-16.6 °F-22.0 °F76 %29.98 in10.0 miNW (320°)17.3 mphMostly Cloudy
3:35 AM-16.6 °F-20.2 °F84 %29.99 in10.0 miNW (320°)17.3 mphMostly Cloudy
3:55 AM-16.6 °F-22.0 °F76 %29.99 in10.0 miNW (310°)18.4 mph24.2 mphScattered Clouds
4:15 AM-14.8 °F-20.2 °F77 %30.00 in5.0 miNW (310°)19.6 mph26.5 mphSnowLight Snow
4:35 AM-13.0 °F-20.2 °F70 %30.01 in1.2 miNW (320°)20.7 mph28.8 mph0.01 inSnowLight Snow
4:55 AM-13.0 °F-18.4 °F77 %30.02 in1.2 miNW (320°)21.9 mph27.6 mph0.01 inSnowLight Snow
5:15 AM-13.0 °F-20.2 °F70 %30.03 in2.5 miNW (320°)25.3 mph28.8 mphRainLight Rain
5:35 AM-13.0 °F-20.2 °F70 %30.04 in5.0 miNW (320°)21.9 mph28.8 mphSnowLight Snow
5:55 AM-13.0 °F-20.2 °F70 %30.05 in4.0 miNW (320°)19.6 mph28.8 mphRainLight Rain
6:15 AM-13.0 °F-18.4 °F77 %30.06 in3.0 miNNW (330°)19.6 mph28.8 mphHaze
6:35 AM-13.0 °F-18.4 °F77 %30.07 in2.5 miNNW (330°)23.0 mph26.5 mphRainLight Rain
6:55 AM-13.0 °F-20.2 °F70 %30.08 in5.0 miNW (320°)19.6 mph28.8 mphHaze
7:15 AM-13.0 °F-20.2 °F70 %30.09 in5.0 miNW (320°)21.9 mph28.8 mphHaze
7:35 AM-13.0 °F-20.2 °F70 %30.10 in7.0 miNW (320°)20.7 mph29.9 mphMostly Cloudy
7:55 AM-13.0 °F-20.2 °F70 %30.11 in10.0 miNW (320°)21.9 mph25.3 mphPartly Cloudy
8:15 AM-13.0 °F-20.2 °F70 %30.13 in9.0 miNW (320°)24.2 mph29.9 mphSnowLight Snow
8:35 AM-13.0 °F-20.2 °F70 %30.14 in10.0 miNW (320°)20.7 mphClear
8:55 AM-13.0 °F-20.2 °F70 %30.15 in10.0 miNW (320°)19.6 mph27.6 mphClear
9:15 AM-13.0 °F-20.2 °F70 %30.16 in10.0 miNW (310°)19.6 mph26.5 mphClear
9:35 AM-13.0 °F-20.2 °F70 %30.17 in10.0 miNW (320°)17.3 mph24.2 mphClear
9:55 AM-13.0 °F-20.2 °F70 %30.18 in10.0 miNW (320°)19.6 mph28.8 mphClear
10:15 AM-13.0 °F-20.2 °F70 %30.18 in10.0 miNNW (330°)18.4 mph25.3 mphClear
10:35 AM0.0 °F0.0 °F30.18 in10.0 miNW (320°)18.4 mph31.1 mphClear
10:55 AM-11.2 °F-18.4 °F70 %30.19 in10.0 miNW (310°)19.6 mph26.5 mphClear
11:15 AM0.0 °F0.0 °F30.20 in10.0 miNW (320°)19.6 mph27.6 mphClear
11:35 AM-11.2 °F-20.2 °F64 %30.21 in10.0 miNW (320°)20.7 mph27.6 mphPartly Cloudy
11:55 AM-13.0 °F-20.2 °F70 %30.21 in10.0 miNW (310°)24.2 mph28.8 mphScattered Clouds
12:15 PM-11.2 °F-20.2 °F64 %30.21 in10.0 miNW (320°)20.7 mph26.5 mphScattered Clouds
12:35 PM-13.0 °F-20.2 °F70 %30.21 in10.0 miNW (320°)20.7 mph25.3 mphPartly Cloudy
12:55 PM-11.2 °F-20.2 °F64 %30.22 in10.0 miNW (320°)21.9 mph27.6 mphPartly Cloudy
1:15 PM-13.0 °F-20.2 °F70 %30.21 in10.0 miNW (310°)20.7 mph28.8 mphClear
1:35 PM-11.2 °F-20.2 °F64 %30.22 in10.0 miNW (320°)20.7 mph25.3 mphPartly Cloudy
1:55 PM0.0 °F0.0 °F30.21 in10.0 miNW (310°)20.7 mphPartly Cloudy
2:15 PM0.0 °F0.0 °F30.21 in10.0 miNW (310°)21.9 mph27.6 mphPartly Cloudy
2:35 PM0.0 °F0.0 °F30.20 in10.0 miNW (320°)18.4 mph27.6 mphClear
2:55 PM-11.2 °F-20.2 °F64 %30.22 in10.0 miNW (310°)21.9 mph25.3 mphClear
3:15 PM-11.2 °F-20.2 °F64 %30.22 in10.0 miNW (320°)21.9 mph25.3 mphClear
3:35 PM-11.2 °F-20.2 °F64 %30.22 in10.0 miNW (310°)18.4 mphClear
3:55 PM0.0 °F0.0 °F30.22 in10.0 miNW (310°)20.7 mphClear
4:15 PM-13.0 °F-20.2 °F70 %30.22 in10.0 miNW (310°)18.4 mph23.0 mphClear
4:35 PM-13.0 °F-20.2 °F70 %30.22 in10.0 miNW (310°)17.3 mphClear
4:55 PM-13.0 °F-20.2 °F70 %30.22 in10.0 miNW (310°)18.4 mphClear
5:15 PM-13.0 °F-20.2 °F70 %30.23 in10.0 miNW (310°)18.4 mphClear
5:35 PM-13.0 °F-20.2 °F70 %30.23 in10.0 miNW (310°)13.8 mphClear
5:55 PM-14.8 °F-22.0 °F70 %30.23 in10.0 miNW (310°)10.4 mphClear
6:15 PM-14.8 °F-22.0 °F70 %30.23 in10.0 miWNW (300°)9.2 mphClear
6:35 PM-14.8 °F-22.0 °F70 %30.23 in10.0 miWNW (300°)9.2 mphClear
6:55 PM-14.8 °F-22.0 °F70 %30.23 in10.0 miWNW (290°)10.4 mphClear
7:15 PM-14.8 °F-22.0 °F70 %30.23 in10.0 miWNW (300°)9.2 mphClear
7:35 PM-16.6 °F-22.0 °F76 %30.23 in10.0 miWNW (300°)11.5 mphClear
8:15 PM-16.6 °F-22.0 °F76 %30.22 in10.0 miWNW (300°)11.5 mphClear
8:35 PM-16.6 °F-22.0 °F76 %30.22 in10.0 miWNW (300°)13.8 mph18.4 mphClear
8:55 PM-16.6 °F-22.0 °F76 %30.22 in10.0 miWNW (300°)13.8 mphClear
9:15 PM-16.6 °F-22.0 °F76 %30.22 in10.0 miWNW (300°)13.8 mphClear
9:35 PM-16.6 °F-22.0 °F76 %30.22 in10.0 miWNW (300°)13.8 mphClear
10:15 PM-16.6 °F-22.0 °F76 %30.21 in10.0 miWNW (290°)10.4 mphClear
10:35 PM-16.6 °F-23.8 °F70 %30.21 in10.0 miNW (310°)8.1 mphClear
10:55 PM-18.4 °F-23.8 °F76 %30.20 in10.0 miNW (310°)8.1 mphClear
11:15 PM-18.4 °F-25.6 °F70 %30.20 in10.0 miWNW (300°)9.2 mphClear
11:35 PM-18.4 °F-23.8 °F76 %30.19 in10.0 miWNW (300°)6.9 mphClear
11:55 PM-18.4 °F-23.8 °F76 %30.19 in10.0 miWNW (300°)9.2 mphClear
Hourly data recorded from KS32, located miles away from Hope, North Dakota







STORIES FROM OUR PARTNERS